Regional Weather Roundup
Issued by NWS

Home | Current Version | Previous Version | Text Only | Print | Product List | Glossary Off
Versions: 1 2 3 4 5 6 7 8 9 10 11 12 13 14 15 16 17 18 19 20 21 22 23 24 25 26 27 28 29 30 31 32 33 34 35 36 37 38 39 40 41 42 43 44 45 46 47 48 49 50

000
ASUS43 KDTX 040001
RWRMI
MICHIGAN HOURLY REGIONAL WEATHER ROUNDUP
NATIONAL WEATHER SERVICE DETROIT/PONTIAC MI
800 PM EDT SUN MAY 03 2015

NOTE: "FAIR" INDICATES FEW OR NO CLOUDS BELOW 12,000 FEET WITH NO
SIGNIFICANT WEATHER AND/OR OBSTRUCTION TO VISIBILITY.

MIZ047>049-052>055-059>063-066>070-074>076-081>083-040100-
SOUTHEAST LOWER MICHIGAN

CITY           SKY/WX    TMP DP  RH WIND       PRES   REMARKS
ADRIAN         MOCLDY    73  45  36 SW7       30.02R
6HR MIN TEMP:  73; 6HR MAX TEMP:  79;

ALMA           MOCLDY    74  44  33 SW6       29.95S
ANN ARBOR      MOCLDY    74  46  36 SW9       30.00S
BAD AXE        MOCLDY    73  40  30 SW7       29.96R
CARO           CLOUDY    72  46  40 CALM      29.95S
DETROIT CITY   MOCLDY    74  45  35 S9        30.00R
6HR MIN TEMP:  74; 6HR MAX TEMP:  77;

DETROIT        MOCLDY    77  46  33 S10       30.00S
6HR MIN TEMP:  77; 6HR MAX TEMP:  82;

FLINT          CLOUDY    76  44  32 SW8       29.97S
6HR MIN TEMP:  76; 6HR MAX TEMP:  81;

GROSSE ILE     PTCLDY    64  54  68 S8        30.00R
HILLSDALE      PTCLDY    74  44  35 SW8       30.01F
6HR MIN TEMP:  74; 6HR MAX TEMP:  79;

HOWELL         MOCLDY    73  43  34 SW6       29.99R
6HR MIN TEMP:  73; 6HR MAX TEMP:  79;


CITY           SKY/WX    TMP DP  RH WIND       PRES   REMARKS
JACKSON        CLOUDY    74  45  35 S8        30.00R
6HR MIN TEMP:  74; 6HR MAX TEMP:  78;

LAMBERTVILLE   MOCLDY    77  41  27 SW5       30.02R
LANSING        PTCLDY    73  46  38 SW9       29.97S
6HR MIN TEMP:  73; 6HR MAX TEMP:  80;

LAPEER         FAIR      72  41  32 S7        29.98S
MASON          CLOUDY    74  43  33 S3        29.98S
MONROE         MOCLDY    75  46  35 SW8       30.00R
MT. CLEMENS    MOCLDY    69  49  50 S8        29.97S
6HR MIN TEMP:  68; 6HR MAX TEMP:  78;

PONTIAC        MOCLDY    75  42  30 SW10      29.98S
6HR MIN TEMP:  75; 6HR MAX TEMP:  78;

PORT HOPE        N/A     76  40  27 VRB5      29.92S
6HR MIN TEMP:  57; 6HR MAX TEMP:  80;

PORT HURON     MOCLDY    70  45  40 S9        29.99S
TRI CITIES     CLOUDY    77  45  32 SW10      29.94S
6HR MIN TEMP:  77; 6HR MAX TEMP:  81;

MIDLAND        FAIR      77  43  29 SW12G18   29.93R
TROY           MOCLDY    78  41  26 SW9       30.01S
SAGINAW HB     CLOUDY    77  41  27 SW9       29.94S
$$
MIZ043>046-050>051-056>058-064>065-071>073-077>080-040100-
SOUTHWEST LOWER MICHIGAN

CITY           SKY/WX    TMP DP  RH WIND       PRES   REMARKS
BATTLE CREEK   CLOUDY    74  47  38 S10       29.99R
6HR MIN TEMP:  74; 6HR MAX TEMP:  79;

BENTON HARBOR  CLOUDY    75  44  33 S9        29.94S
6HR MIN TEMP:  71; 6HR MAX TEMP:  78;

BIG RAPIDS     MOCLDY    74  41  30 SW8G20    29.93S
6HR MIN TEMP:  74; 6HR MAX TEMP:  78;

COLDWATER      PTCLDY    73  43  33 SW10G16   29.99S
6HR MIN TEMP:  73; 6HR MAX TEMP:  77;

FREMONT        MOCLDY    72  39  30 SW10      29.92F
HOLLAND        CLOUDY    74  46  36 S6        29.94F
6HR MIN TEMP:  74; 6HR MAX TEMP:  78;

GRAND RAPIDS   MOCLDY    73  48  41 S6        29.94F
6HR MIN TEMP:  73; 6HR MAX TEMP:  79;

IONIA          MOCLDY    75  44  33 S7        29.95S
KALAMAZOO      MOCLDY    73  45  36 S8        29.97S
6HR MIN TEMP:  73; 6HR MAX TEMP:  80;

LUDINGTON      CLOUDY    72  47  40 S16G22    29.90S
6HR MIN TEMP:  71; 6HR MAX TEMP:  76;

MARSHALL       PTCLDY    73  46  37 SW8G21    29.98S
MOUNT PLEASANT CLOUDY    75  42  30 SW10      29.94S
6HR MIN TEMP:  75; 6HR MAX TEMP:  81;

MUSKEGON       CLOUDY    71  42  35 S8        29.93F
6HR MIN TEMP:  71; 6HR MAX TEMP:  77;

SOUTH HAVEN    CLOUDY    77  38  24 S5        29.94S
$$
MIZ016>042-040100-
NORTHERN LOWER MICHIGAN

CITY           SKY/WX    TMP DP  RH WIND       PRES   REMARKS
ALPENA         PTCLDY    78  44  29 SW10      29.88S
6HR MIN TEMP:  78; 6HR MAX TEMP:  81;

BEAVER ISLAND  MOCLDY    68  43  40 SW14G32   29.83F
6HR MIN TEMP:  63; 6HR MAX TEMP:  73;

BELLAIRE       MOCLDY    76  44  32 SW10G18   29.87R
6HR MIN TEMP:  76; 6HR MAX TEMP:  80;

CADILLAC       MOCLDY    70  47  43 SW15      29.92S
CHARLEVOIX     PTCLDY    73  46  37 S12       29.89R
6HR MIN TEMP:  69; 6HR MAX TEMP:  79;

FRANKFORT      MOCLDY    74  41  30 S14G24    29.87S
GAYLORD        PTCLDY    73  43  33 SW17G25   29.89S
6HR MIN TEMP:  73; 6HR MAX TEMP:  77;

GRAYLING       MOCLDY    73  43  34 SW9       29.91S
6HR MIN TEMP:  73; 6HR MAX TEMP:  78;

HARBOR SPRINGS PTCLDY    59  41  52 CALM      29.86S
HOUGHTON LAKE  MOCLDY    71  46  40 SW10      29.92S
6HR MIN TEMP:  71; 6HR MAX TEMP:  76;

MANISTEE       MOCLDY    73  46  38 S13       29.89S
OSCODA         MOCLDY    74  45  34 S6        29.90S
PELLSTON       MOCLDY    75  44  33 SW12      29.86S
6HR MIN TEMP:  75; 6HR MAX TEMP:  79;

ROGERS CITY    PTCLDY    68  50  51 E6        29.89S
TRAVERSE CITY  MOCLDY    75  48  38 S10G21    29.87R
6HR MIN TEMP:  75; 6HR MAX TEMP:  81;

$$
MIZ007>008-015-040100-
EASTERN UPPER MICHIGAN

CITY           SKY/WX    TMP DP  RH WIND       PRES   REMARKS
KINROSS        MOCLDY    70  43  37 SW10      29.85S
6HR MIN TEMP:  70; 6HR MAX TEMP:  75;

MACKINAC ISLAN MOCLDY    63  42  46 CALM      29.86R
6HR MIN TEMP:  63; 6HR MAX TEMP:  71;

NEWBERRY       CLOUDY    62  44  52 SW14G23   29.84S
6HR MIN TEMP:  62; 6HR MAX TEMP:  72;

S. S. MARIE    MOCLDY    70  44  39 S10       29.83S
6HR MIN TEMP:  70; 6HR MAX TEMP:  78;

MUNISING         N/A     62  56  80 S8        29.81R
6HR MIN TEMP:  52; 6HR MAX TEMP:  81; 6HR PCP:  0.30;

$$
MIZ004>006-011>014-085-040100-
CENTRAL UPPER MICHIGAN

CITY           SKY/WX    TMP DP  RH WIND       PRES   REMARKS
MANISTIQUE     MOCLDY    47  39  74 S8        29.83S
6HR MIN TEMP:  46; 6HR MAX TEMP:  52;

ESCANABA       PTCLDY    59  45  58 S16G23    29.75F
6HR MIN TEMP:  59; 6HR MAX TEMP:  66;

MENOMINEE      CLEAR     75  54  46 S15       29.76F
6HR MIN TEMP:  75; 6HR MAX TEMP:  81;

SAWYER-GWINN   PTCLDY    59  54  82 SE10      29.78F
$$
MIZ001>003-009>011-084-040100-
WESTERN UPPER MICHIGAN

CITY           SKY/WX    TMP DP  RH WIND       PRES   REMARKS
IRON MOUNTAIN  MOCLDY    75  50  41 NW14G22   29.74S
6HR MIN TEMP:  75; 6HR MAX TEMP:  82; 6HR PCP: TRACE;

HOUGHTON       CLOUDY    63  50  62 NW13      29.79R
6HR MIN TEMP:  63; 6HR MAX TEMP:  77;

COPPER HARBOR    N/A     61  49  64 CALM      29.77R
6HR MIN TEMP:  52; 6HR MAX TEMP:  73;

IRONWOOD       PTSUNNY   66  45  45 NW14      29.83R
6HR MIN TEMP:  66; 6HR MAX TEMP:  77;

$$

ABBREVIATIONS USED IN REMARKS
   TC - TEMPERATURE IN CELSIUS
  WCI - WIND CHILL INDEX
   HX - HEAT INDEX
  VSB - VISIBILITY




USA.gov is the U.S. government's official web portal to all federal, state and local government web resources and services.